CFG1590 EDDF-LGKO

Flight info

Callsign CFG1590
Flight time 2h 56m
Altitude 35000
Route CINDY8S CINDY Z74 LAMPU DCT NOMBO Y161 MAH DCT VAVOR DCT RADIZ DCT KUSIB DCT MEDUX/N0442F370 UM867 KOGAT DCT ERANA DCT TSL DCT MES UN139 LURUS L995 KOPAR
Aircraft A320/M-SDE3FGHIJ1LORVWXYZ/LB1

Departure

Time 2026-05-06 12:21
Airport Frankfurt Main Airport (EDDF)

Arrival

Time 2026-05-06 15:18
Airport Kos International Airport "Ippokratis" (LGKO)
Time Latitude Longitude Altitude Speed Heading
2026-05-06 11:37 50.04901 8.58796 366 ft 0 kts 160°
2026-05-06 12:04 50.04901 8.58795 362 ft 1 kts 160°
2026-05-06 12:05 50.04923 8.58783 365 ft 4 kts 160°
2026-05-06 12:05 50.04943 8.58771 360 ft 4 kts 147°
2026-05-06 12:05 50.04959 8.58742 363 ft 4 kts 102°
2026-05-06 12:05 50.04959 8.58705 363 ft 2 kts 70°
2026-05-06 12:06 50.04966 8.58734 359 ft 4 kts 70°
2026-05-06 12:06 50.04973 8.58765 362 ft 0 kts 70°
2026-05-06 12:08 50.04976 8.58776 366 ft 5 kts 70°
2026-05-06 12:08 50.05001 8.58881 359 ft 16 kts 69°
2026-05-06 12:08 50.05044 8.59060 364 ft 19 kts 69°
2026-05-06 12:09 50.05077 8.59207 363 ft 10 kts 78°
2026-05-06 12:09 50.05068 8.59282 364 ft 4 kts 123°
2026-05-06 12:09 50.05050 8.59305 362 ft 3 kts 148°
2026-05-06 12:09 50.05022 8.59324 364 ft 5 kts 159°
2026-05-06 12:10 50.04984 8.59346 368 ft 6 kts 159°
2026-05-06 12:10 50.04926 8.59386 370 ft 14 kts 152°
2026-05-06 12:10 50.04827 8.59503 370 ft 21 kts 136°
2026-05-06 12:10 50.04689 8.59610 374 ft 24 kts 170°
2026-05-06 12:11 50.04509 8.59625 376 ft 28 kts 178°
2026-05-06 12:11 50.04301 8.59636 376 ft 28 kts 178°
2026-05-06 12:11 50.04133 8.59596 375 ft 24 kts 199°
2026-05-06 12:11 50.03983 8.59487 373 ft 24 kts 217°
2026-05-06 12:12 50.03872 8.59281 367 ft 26 kts 244°
2026-05-06 12:12 50.03807 8.59018 369 ft 26 kts 250°
2026-05-06 12:12 50.03742 8.58744 361 ft 28 kts 249°
2026-05-06 12:12 50.03675 8.58467 360 ft 27 kts 249°
2026-05-06 12:13 50.03611 8.58197 362 ft 26 kts 249°
2026-05-06 12:13 50.03549 8.57938 365 ft 25 kts 249°
2026-05-06 12:13 50.03487 8.57680 360 ft 26 kts 250°
2026-05-06 12:13 50.03427 8.57423 359 ft 25 kts 250°
2026-05-06 12:14 50.03365 8.57169 355 ft 25 kts 249°
2026-05-06 12:14 50.03305 8.56915 352 ft 25 kts 249°
2026-05-06 12:14 50.03244 8.56657 352 ft 26 kts 250°
2026-05-06 12:14 50.03182 8.56395 356 ft 26 kts 249°
2026-05-06 12:15 50.03119 8.56134 345 ft 26 kts 249°
2026-05-06 12:15 50.03056 8.55866 349 ft 26 kts 249°
2026-05-06 12:15 50.02996 8.55618 349 ft 24 kts 249°
2026-05-06 12:15 50.02939 8.55374 351 ft 24 kts 250°
2026-05-06 12:16 50.02882 8.55135 347 ft 24 kts 249°
2026-05-06 12:16 50.02822 8.54894 347 ft 24 kts 250°
2026-05-06 12:16 50.02766 8.54650 337 ft 24 kts 249°
2026-05-06 12:16 50.02714 8.54442 337 ft 12 kts 249°
2026-05-06 12:17 50.02683 8.54309 335 ft 14 kts 256°
2026-05-06 12:17 50.02655 8.54151 335 ft 16 kts 249°
2026-05-06 12:17 50.02613 8.53975 332 ft 18 kts 249°
2026-05-06 12:17 50.02567 8.53781 331 ft 19 kts 249°
2026-05-06 12:18 50.02520 8.53588 334 ft 19 kts 250°
2026-05-06 12:18 50.02475 8.53397 336 ft 19 kts 249°
2026-05-06 12:18 50.02427 8.53197 334 ft 20 kts 249°
2026-05-06 12:18 50.02380 8.52998 332 ft 18 kts 250°
2026-05-06 12:19 50.02347 8.52860 333 ft 10 kts 248°
2026-05-06 12:19 50.02323 8.52768 331 ft 4 kts 249°
2026-05-06 12:19 50.02323 8.52767 331 ft 0 kts 249°
2026-05-06 12:19 50.02323 8.52766 331 ft 1 kts 249°
2026-05-06 12:20 50.02310 8.52715 331 ft 12 kts 249°
2026-05-06 12:20 50.02247 8.52607 332 ft 15 kts 193°
2026-05-06 12:20 50.02200 8.52608 333 ft 0 kts 178°
2026-05-06 12:20 50.02104 8.52610 332 ft 46 kts 180°
2026-05-06 12:21 50.01555 8.52612 334 ft 110 kts 180°
2026-05-06 12:21 50.00608 8.52623 353 ft 158 kts 178°
2026-05-06 12:21 49.99528 8.52666 991 ft 154 kts 178°
2026-05-06 12:21 49.98455 8.52694 1718 ft 152 kts 181°
2026-05-06 12:22 49.97399 8.52768 2376 ft 153 kts 173°
2026-05-06 12:22 49.96426 8.53477 2986 ft 160 kts 139°
2026-05-06 12:22 49.95794 8.54947 3449 ft 175 kts 122°
2026-05-06 12:22 49.95196 8.56723 3755 ft 196 kts 122°
2026-05-06 12:23 49.94496 8.58678 4029 ft 219 kts 120°
2026-05-06 12:23 49.94040 8.61055 4310 ft 244 kts 97°
2026-05-06 12:23 49.93922 8.63812 4608 ft 268 kts 96°
2026-05-06 12:23 49.93711 8.66748 5244 ft 277 kts 106°
2026-05-06 12:24 49.92977 8.69504 6029 ft 278 kts 125°
2026-05-06 12:24 49.91820 8.71631 6749 ft 277 kts 142°
2026-05-06 12:24 49.90265 8.73406 7532 ft 278 kts 148°
2026-05-06 12:24 49.88755 8.75319 8324 ft 285 kts 136°
2026-05-06 12:25 49.87566 8.77818 9074 ft 293 kts 122°
2026-05-06 12:25 49.86588 8.80554 9827 ft 296 kts 121°
2026-05-06 12:25 49.85579 8.83370 10207 ft 313 kts 121°
2026-05-06 12:25 49.84477 8.86424 10386 ft 336 kts 121°
2026-05-06 12:26 49.83290 8.89700 10771 ft 350 kts 121°
2026-05-06 12:26 49.82087 8.93015 11414 ft 355 kts 122°
2026-05-06 12:26 49.80886 8.96318 12090 ft 358 kts 122°
2026-05-06 12:26 49.79659 8.99685 12765 ft 362 kts 122°
2026-05-06 12:27 49.78413 9.03095 13456 ft 365 kts 122°
2026-05-06 12:27 49.77159 9.06529 14074 ft 368 kts 121°
2026-05-06 12:27 49.76095 9.10144 14703 ft 373 kts 111°
2026-05-06 12:27 49.75414 9.14034 15306 ft 376 kts 108°
2026-05-06 12:28 49.74520 9.17828 15868 ft 376 kts 118°
2026-05-06 12:28 49.73183 9.21292 16471 ft 375 kts 129°
2026-05-06 12:28 49.71505 9.24386 17074 ft 377 kts 134°
2026-05-06 12:28 49.69773 9.27439 17670 ft 379 kts 134°
2026-05-06 12:29 49.68027 9.30512 18214 ft 382 kts 134°
2026-05-06 12:29 49.66269 9.33609 18714 ft 385 kts 134°
2026-05-06 12:29 49.64501 9.36726 19209 ft 388 kts 134°
2026-05-06 12:29 49.62691 9.39832 19701 ft 390 kts 138°
2026-05-06 12:30 49.60609 9.42511 20181 ft 391 kts 148°
2026-05-06 12:30 49.58287 9.44702 20671 ft 392 kts 151°
2026-05-06 12:30 49.55932 9.46842 21204 ft 393 kts 152°
2026-05-06 12:30 49.53572 9.48987 21723 ft 395 kts 152°
2026-05-06 12:31 49.51205 9.51144 22202 ft 397 kts 151°
2026-05-06 12:31 49.48821 9.53323 22665 ft 400 kts 151°
2026-05-06 12:31 49.46421 9.55515 23117 ft 402 kts 151°
2026-05-06 12:31 49.44005 9.57720 23516 ft 405 kts 151°
2026-05-06 12:32 49.41577 9.59936 23897 ft 407 kts 151°
2026-05-06 12:32 49.39138 9.62153 24275 ft 408 kts 152°
2026-05-06 12:32 49.36690 9.64369 24653 ft 409 kts 152°
2026-05-06 12:32 49.34288 9.66727 25018 ft 412 kts 145°
2026-05-06 12:33 49.32137 9.69649 25374 ft 416 kts 137°
2026-05-06 12:33 49.30089 9.72797 25719 ft 418 kts 138°
2026-05-06 12:33 49.28030 9.75954 26053 ft 420 kts 138°
2026-05-06 12:33 49.25958 9.79116 26385 ft 421 kts 138°
2026-05-06 12:34 49.23903 9.82245 26672 ft 423 kts 139°
2026-05-06 12:34 49.21780 9.85470 26974 ft 425 kts 139°
2026-05-06 12:34 49.19673 9.88664 27271 ft 427 kts 139°
2026-05-06 12:34 49.17556 9.91867 27581 ft 429 kts 140°
2026-05-06 12:35 49.15459 9.95037 27865 ft 431 kts 140°
2026-05-06 12:35 49.13364 9.98205 28150 ft 432 kts 140°
2026-05-06 12:35 49.11224 10.01442 28430 ft 434 kts 140°
2026-05-06 12:35 49.09077 10.04689 28668 ft 435 kts 140°
2026-05-06 12:36 49.06892 10.07989 28874 ft 438 kts 141°
2026-05-06 12:36 49.04744 10.11188 29093 ft 439 kts 142°
2026-05-06 12:36 49.02519 10.14389 29321 ft 440 kts 143°
2026-05-06 12:36 49.00264 10.17555 29522 ft 441 kts 143°
2026-05-06 12:37 48.97991 10.20712 29725 ft 443 kts 144°
2026-05-06 12:37 48.95710 10.23880 29948 ft 445 kts 143°
2026-05-06 12:37 48.93432 10.27058 30213 ft 444 kts 143°
2026-05-06 12:37 48.91165 10.30244 30474 ft 443 kts 143°
2026-05-06 12:38 48.88907 10.33436 30732 ft 443 kts 143°
2026-05-06 12:38 48.86653 10.36626 30979 ft 443 kts 143°
2026-05-06 12:38 48.84399 10.39809 31267 ft 442 kts 143°
2026-05-06 12:38 48.82161 10.42997 31547 ft 443 kts 142°
2026-05-06 12:39 48.79979 10.46308 31815 ft 444 kts 140°
2026-05-06 12:39 48.77853 10.49714 32048 ft 445 kts 139°
2026-05-06 12:39 48.75756 10.53169 32267 ft 445 kts 139°
2026-05-06 12:39 48.73661 10.56634 32479 ft 446 kts 139°
2026-05-06 12:40 48.71556 10.60084 32718 ft 446 kts 140°
2026-05-06 12:40 48.69438 10.63506 32960 ft 445 kts 140°
2026-05-06 12:40 48.67309 10.66903 33195 ft 444 kts 140°
2026-05-06 12:40 48.65174 10.70284 33450 ft 444 kts 141°
2026-05-06 12:41 48.63037 10.73654 33691 ft 444 kts 141°
2026-05-06 12:41 48.60900 10.77020 33933 ft 444 kts 141°
2026-05-06 12:41 48.58765 10.80386 34240 ft 444 kts 140°
2026-05-06 12:41 48.56642 10.83752 34460 ft 443 kts 140°
2026-05-06 12:42 48.54523 10.87141 34651 ft 444 kts 140°
2026-05-06 12:42 48.52407 10.90538 34775 ft 445 kts 140°
2026-05-06 12:42 48.48170 10.97329 34784 ft 444 kts 141°
2026-05-06 12:43 48.43902 11.04024 34783 ft 443 kts 141°
2026-05-06 12:43 48.39601 11.10683 34784 ft 443 kts 141°
2026-05-06 12:44 48.35296 11.17327 34785 ft 443 kts 141°
2026-05-06 12:44 48.31005 11.23966 34758 ft 443 kts 142°
2026-05-06 12:45 48.26774 11.30708 34769 ft 448 kts 135°
2026-05-06 12:46 48.21849 11.42869 34775 ft 457 kts 127°
2026-05-06 12:46 48.19201 11.49717 34778 ft 456 kts 127°
2026-05-06 12:47 48.16006 11.57940 34778 ft 457 kts 128°
2026-05-06 12:47 48.12807 11.66153 34750 ft 457 kts 128°
2026-05-06 12:48 48.09602 11.74368 34755 ft 457 kts 128°
2026-05-06 12:48 48.06393 11.82568 34753 ft 456 kts 128°
2026-05-06 12:49 48.03186 11.90748 34730 ft 457 kts 128°
2026-05-06 12:49 47.99998 11.98833 34722 ft 456 kts 129°
2026-05-06 12:50 47.96769 12.06989 34723 ft 456 kts 129°
2026-05-06 12:50 47.93350 12.14888 34734 ft 446 kts 139°
2026-05-06 12:50 47.91238 12.18177 34735 ft 435 kts 147°
2026-05-06 12:51 47.88934 12.21073 34741 ft 433 kts 149°
2026-05-06 12:51 47.84314 12.26846 34743 ft 434 kts 148°
2026-05-06 12:52 47.79695 12.32622 34744 ft 434 kts 148°
2026-05-06 12:52 47.75082 12.38394 34731 ft 433 kts 149°
2026-05-06 12:53 47.70463 12.44146 34741 ft 433 kts 149°
2026-05-06 12:53 47.65842 12.49878 34749 ft 432 kts 149°
2026-05-06 12:54 47.61390 12.55959 34752 ft 443 kts 140°
2026-05-06 12:54 47.57343 12.62858 34740 ft 443 kts 140°
2026-05-06 12:55 47.53301 12.69746 34726 ft 444 kts 140°
2026-05-06 12:55 47.49230 12.76652 34717 ft 445 kts 140°
2026-05-06 12:56 47.45144 12.83564 34749 ft 447 kts 140°
2026-05-06 12:56 47.41076 12.90435 34759 ft 447 kts 140°
2026-05-06 12:57 47.36978 12.97335 34781 ft 447 kts 140°
2026-05-06 12:57 47.32876 13.04221 34785 ft 447 kts 140°
2026-05-06 12:58 47.28763 13.11109 34803 ft 448 kts 140°
2026-05-06 12:58 47.24637 13.17994 34780 ft 448 kts 140°
2026-05-06 12:59 47.20489 13.24898 34811 ft 451 kts 140°
2026-05-06 12:59 47.16339 13.31806 34823 ft 452 kts 139°
2026-05-06 13:00 47.12162 13.38726 34833 ft 453 kts 139°
2026-05-06 13:00 47.07976 13.45631 34863 ft 453 kts 139°
2026-05-06 13:01 47.03783 13.52546 34871 ft 454 kts 139°
2026-05-06 13:01 46.99623 13.59399 34880 ft 454 kts 139°
2026-05-06 13:02 46.95423 13.66307 34868 ft 455 kts 139°
2026-05-06 13:02 46.91198 13.73214 34873 ft 456 kts 139°
2026-05-06 13:03 46.86965 13.80118 34883 ft 456 kts 139°
2026-05-06 13:03 46.82731 13.87007 34887 ft 456 kts 139°
2026-05-06 13:04 46.78488 13.93893 34889 ft 456 kts 139°
2026-05-06 13:04 46.73780 13.99775 34866 ft 441 kts 154°
2026-05-06 13:05 46.68581 14.04523 34875 ft 441 kts 154°
2026-05-06 13:05 46.63367 14.09241 34884 ft 441 kts 155°
2026-05-06 13:06 46.58154 14.13967 34889 ft 441 kts 155°
2026-05-06 13:06 46.52944 14.18677 34899 ft 441 kts 155°
2026-05-06 13:07 46.47725 14.23387 34879 ft 441 kts 154°
2026-05-06 13:07 46.42509 14.28022 34903 ft 440 kts 155°
2026-05-06 13:08 46.37287 14.32659 34947 ft 440 kts 155°
2026-05-06 13:08 46.32079 14.37275 34955 ft 439 kts 155°
2026-05-06 13:09 46.26868 14.41895 35120 ft 439 kts 155°
2026-05-06 13:09 46.24274 14.44190 35367 ft 437 kts 155°
2026-05-06 13:09 46.21679 14.46479 35591 ft 436 kts 155°
2026-05-06 13:09 46.19087 14.48757 35775 ft 436 kts 155°
2026-05-06 13:10 46.16491 14.51025 35895 ft 437 kts 155°
2026-05-06 13:10 46.13923 14.53254 36041 ft 437 kts 155°
2026-05-06 13:10 46.11317 14.55506 36199 ft 437 kts 155°
2026-05-06 13:10 46.08689 14.57806 36347 ft 439 kts 151°
2026-05-06 13:11 46.06400 14.60691 36482 ft 450 kts 135°
2026-05-06 13:11 46.04533 14.64352 36615 ft 455 kts 130°
2026-05-06 13:11 46.02734 14.68102 36760 ft 456 kts 130°
2026-05-06 13:11 46.00950 14.71871 36905 ft 455 kts 129°
2026-05-06 13:12 45.99175 14.75637 36955 ft 454 kts 129°
2026-05-06 13:12 45.95621 14.83143 36955 ft 456 kts 130°
2026-05-06 13:13 45.92027 14.90655 36948 ft 456 kts 130°
2026-05-06 13:13 45.88417 14.98152 36949 ft 456 kts 130°
2026-05-06 13:14 45.84803 15.05640 36945 ft 457 kts 130°
2026-05-06 13:14 45.81184 15.13119 36921 ft 457 kts 130°
2026-05-06 13:15 45.77561 15.20610 36931 ft 457 kts 130°
2026-05-06 13:15 45.73926 15.28090 36941 ft 457 kts 130°
2026-05-06 13:16 45.70283 15.35561 36944 ft 458 kts 130°
2026-05-06 13:16 45.66642 15.43030 36946 ft 458 kts 130°
2026-05-06 13:17 45.62998 15.50494 36945 ft 458 kts 130°
2026-05-06 13:17 45.59345 15.57946 36946 ft 458 kts 130°
2026-05-06 13:18 45.55687 15.65372 36949 ft 458 kts 130°
2026-05-06 13:18 45.52043 15.72753 36955 ft 458 kts 130°
2026-05-06 13:19 45.48376 15.80179 36935 ft 458 kts 130°
2026-05-06 13:19 45.44710 15.87583 36935 ft 457 kts 130°
2026-05-06 13:20 45.41031 15.94974 36941 ft 457 kts 130°
2026-05-06 13:20 45.37348 16.02353 36949 ft 457 kts 131°
2026-05-06 13:21 45.33663 16.09721 36918 ft 457 kts 130°
2026-05-06 13:21 45.29975 16.17085 36928 ft 457 kts 130°
2026-05-06 13:22 45.26283 16.24445 36932 ft 458 kts 130°
2026-05-06 13:22 45.22581 16.31782 36931 ft 458 kts 131°
2026-05-06 13:23 45.18869 16.39118 36914 ft 458 kts 130°
2026-05-06 13:23 45.15150 16.46444 36925 ft 457 kts 133°
2026-05-06 13:24 45.11001 16.53178 36927 ft 453 kts 137°
2026-05-06 13:24 45.06780 16.59800 36930 ft 453 kts 137°
2026-05-06 13:25 45.02555 16.66410 36929 ft 453 kts 137°
2026-05-06 13:25 44.98335 16.73005 36914 ft 453 kts 137°
2026-05-06 13:26 44.94110 16.79605 36925 ft 453 kts 137°
2026-05-06 13:26 44.89886 16.86200 36917 ft 453 kts 137°
2026-05-06 13:27 44.85658 16.92775 36924 ft 453 kts 137°
2026-05-06 13:27 44.81419 16.99330 36918 ft 452 kts 137°
2026-05-06 13:28 44.77180 17.05865 36926 ft 452 kts 137°
2026-05-06 13:28 44.72943 17.12388 36929 ft 451 kts 137°
2026-05-06 13:29 44.68717 17.18892 36932 ft 450 kts 137°
2026-05-06 13:29 44.64490 17.25398 36920 ft 451 kts 136°
2026-05-06 13:30 44.60255 17.31893 36925 ft 451 kts 137°
2026-05-06 13:30 44.56011 17.38372 36940 ft 451 kts 137°
2026-05-06 13:31 44.51764 17.44841 36939 ft 451 kts 137°
2026-05-06 13:31 44.47510 17.51307 36948 ft 451 kts 137°
2026-05-06 13:32 44.43978 17.56679 36940 ft 452 kts 137°
2026-05-06 13:32 44.39020 17.64188 36932 ft 452 kts 136°
2026-05-06 13:33 44.34787 17.70577 36943 ft 451 kts 136°
2026-05-06 13:33 44.31240 17.75923 36938 ft 451 kts 137°
2026-05-06 13:34 44.26971 17.82350 36947 ft 453 kts 136°
2026-05-06 13:34 44.22678 17.88795 36947 ft 454 kts 136°
2026-05-06 13:35 44.18374 17.95230 36954 ft 454 kts 136°
2026-05-06 13:35 44.14062 18.01664 36953 ft 454 kts 136°
2026-05-06 13:36 44.09749 18.08090 36959 ft 454 kts 136°
2026-05-06 13:36 44.05434 18.14509 36966 ft 455 kts 136°
2026-05-06 13:37 44.01105 18.20933 36965 ft 455 kts 136°
2026-05-06 13:37 43.96764 18.27347 36973 ft 456 kts 136°
2026-05-06 13:38 43.92421 18.33758 36973 ft 456 kts 136°
2026-05-06 13:38 43.88074 18.40165 36965 ft 456 kts 136°
2026-05-06 13:39 43.83728 18.46565 36966 ft 456 kts 136°
2026-05-06 13:39 43.79376 18.52945 36968 ft 456 kts 136°
2026-05-06 13:40 43.75013 18.59326 36995 ft 456 kts 137°
2026-05-06 13:40 43.70648 18.65710 36996 ft 457 kts 136°
2026-05-06 13:41 43.66269 18.72082 36992 ft 457 kts 136°
2026-05-06 13:41 43.61886 18.78447 36988 ft 457 kts 136°
2026-05-06 13:42 43.57508 18.84798 36985 ft 457 kts 136°
2026-05-06 13:42 43.53123 18.91149 36996 ft 457 kts 136°
2026-05-06 13:43 43.48729 18.97498 36986 ft 458 kts 137°
2026-05-06 13:43 43.44324 19.03838 37001 ft 458 kts 137°
2026-05-06 13:44 43.39914 19.10175 36991 ft 458 kts 137°
2026-05-06 13:44 43.35493 19.16507 36988 ft 459 kts 137°
2026-05-06 13:45 43.31107 19.22782 36993 ft 460 kts 137°
2026-05-06 13:45 43.24450 19.32267 37003 ft 460 kts 137°
2026-05-06 13:46 43.20012 19.38582 37006 ft 460 kts 137°
2026-05-06 13:46 43.15572 19.44898 37016 ft 460 kts 137°
2026-05-06 13:47 43.11121 19.51206 37010 ft 461 kts 137°
2026-05-06 13:47 43.06661 19.57505 37003 ft 461 kts 137°
2026-05-06 13:48 43.02193 19.63808 37011 ft 462 kts 137°
2026-05-06 13:48 42.97715 19.70106 37012 ft 462 kts 137°
2026-05-06 13:49 42.93234 19.76395 37025 ft 462 kts 137°
2026-05-06 13:49 42.88750 19.82676 37009 ft 462 kts 137°
2026-05-06 13:50 42.84258 19.88958 37013 ft 463 kts 137°
2026-05-06 13:50 42.79759 19.95227 37014 ft 463 kts 137°
2026-05-06 13:51 42.75249 20.01505 37022 ft 464 kts 136°
2026-05-06 13:51 42.71112 20.08199 37023 ft 466 kts 132°
2026-05-06 13:52 42.66996 20.15001 37016 ft 466 kts 132°
2026-05-06 13:52 42.62883 20.21790 37021 ft 466 kts 131°
2026-05-06 13:53 42.58758 20.28576 37007 ft 466 kts 132°
2026-05-06 13:53 42.54613 20.35359 37028 ft 467 kts 132°
2026-05-06 13:54 42.50463 20.42135 37042 ft 467 kts 132°
2026-05-06 13:54 42.46315 20.48902 37040 ft 467 kts 131°
2026-05-06 13:55 42.42175 20.55655 37043 ft 466 kts 131°
2026-05-06 13:55 42.38028 20.62407 37057 ft 466 kts 132°
2026-05-06 13:56 42.33874 20.69142 37050 ft 466 kts 132°
2026-05-06 13:56 42.29716 20.75863 37039 ft 466 kts 132°
2026-05-06 13:57 42.25562 20.82577 37054 ft 466 kts 131°
2026-05-06 13:57 42.21394 20.89292 37030 ft 466 kts 132°
2026-05-06 13:58 42.17235 20.95989 37039 ft 466 kts 131°
2026-05-06 13:58 42.13056 21.02677 37022 ft 466 kts 132°
2026-05-06 13:59 42.08584 21.08963 37020 ft 464 kts 139°
2026-05-06 13:59 42.03881 21.14922 37017 ft 464 kts 139°
2026-05-06 14:00 41.99177 21.20877 37003 ft 465 kts 139°
2026-05-06 14:00 41.94462 21.26845 37007 ft 466 kts 139°
2026-05-06 14:01 41.89740 21.32814 37006 ft 466 kts 139°
2026-05-06 14:01 41.85010 21.38781 37003 ft 467 kts 139°
2026-05-06 14:02 41.80270 21.44736 37010 ft 467 kts 139°
2026-05-06 14:02 41.75529 21.50687 37009 ft 467 kts 139°
2026-05-06 14:03 41.70791 21.56625 36984 ft 467 kts 139°
2026-05-06 14:03 41.66074 21.62521 37002 ft 467 kts 139°
2026-05-06 14:04 41.61317 21.68448 37016 ft 467 kts 139°
2026-05-06 14:04 41.56558 21.74373 37021 ft 468 kts 139°
2026-05-06 14:05 41.51802 21.80287 37021 ft 468 kts 139°
2026-05-06 14:05 41.47027 21.86197 37007 ft 468 kts 139°
2026-05-06 14:06 41.42245 21.92101 37011 ft 469 kts 139°
2026-05-06 14:06 41.37459 21.98004 37017 ft 469 kts 139°
2026-05-06 14:07 41.32676 22.03908 37028 ft 469 kts 139°
2026-05-06 14:07 41.27889 22.09796 37030 ft 469 kts 139°
2026-05-06 14:08 41.23101 22.15668 37001 ft 469 kts 139°
2026-05-06 14:08 41.18293 22.21542 36999 ft 470 kts 139°
2026-05-06 14:09 41.13413 22.27314 37003 ft 470 kts 142°
2026-05-06 14:09 41.08324 22.32752 37020 ft 470 kts 144°
2026-05-06 14:10 41.03178 22.38098 37024 ft 470 kts 143°
2026-05-06 14:10 40.98078 22.43510 37015 ft 470 kts 143°
2026-05-06 14:11 40.93005 22.48981 37012 ft 471 kts 142°
2026-05-06 14:11 40.87923 22.54440 37015 ft 471 kts 142°
2026-05-06 14:12 40.82862 22.59841 37019 ft 471 kts 143°
2026-05-06 14:12 40.77754 22.65254 37020 ft 471 kts 143°
2026-05-06 14:13 40.72649 22.70658 37026 ft 471 kts 143°
2026-05-06 14:13 40.67537 22.76066 37021 ft 471 kts 143°
2026-05-06 14:14 40.62425 22.81474 37023 ft 472 kts 142°
2026-05-06 14:14 40.57302 22.86883 37019 ft 472 kts 142°
2026-05-06 14:15 40.52170 22.92293 37021 ft 473 kts 142°
2026-05-06 14:15 40.47033 22.97685 37024 ft 473 kts 142°
2026-05-06 14:16 40.42335 23.03747 37029 ft 474 kts 134°
2026-05-06 14:16 40.37798 23.10038 37033 ft 474 kts 134°
2026-05-06 14:17 40.33248 23.16316 37035 ft 475 kts 134°
2026-05-06 14:17 40.28687 23.22593 37036 ft 476 kts 134°
2026-05-06 14:18 40.24117 23.28867 37044 ft 476 kts 134°
2026-05-06 14:18 40.19548 23.35140 37046 ft 477 kts 134°
2026-05-06 14:19 40.14973 23.41420 37044 ft 477 kts 134°
2026-05-06 14:19 40.11157 23.46629 37051 ft 477 kts 134°
2026-05-06 14:20 40.05814 23.53909 37053 ft 478 kts 134°
2026-05-06 14:20 40.01220 23.60174 37053 ft 478 kts 134°
2026-05-06 14:21 39.97391 23.65383 37056 ft 478 kts 134°
2026-05-06 14:21 39.92775 23.71636 37058 ft 479 kts 134°
2026-05-06 14:22 39.88159 23.77876 37056 ft 479 kts 134°
2026-05-06 14:22 39.83530 23.84124 37055 ft 479 kts 134°
2026-05-06 14:23 39.78896 23.90369 37059 ft 480 kts 134°
2026-05-06 14:23 39.74261 23.96612 37060 ft 480 kts 134°
2026-05-06 14:24 39.69627 24.02843 37059 ft 480 kts 134°
2026-05-06 14:24 39.64975 24.09069 37068 ft 481 kts 134°
2026-05-06 14:25 39.60311 24.15294 37050 ft 481 kts 134°
2026-05-06 14:25 39.55647 24.21520 37052 ft 481 kts 134°
2026-05-06 14:26 39.50980 24.27732 37059 ft 482 kts 134°
2026-05-06 14:26 39.46300 24.33942 37065 ft 482 kts 134°
2026-05-06 14:27 39.41611 24.40151 37072 ft 482 kts 134°
2026-05-06 14:27 39.36926 24.46353 37062 ft 483 kts 134°
2026-05-06 14:28 39.32225 24.52560 37060 ft 483 kts 134°
2026-05-06 14:28 39.27515 24.58765 37060 ft 484 kts 135°
2026-05-06 14:29 39.22798 24.64967 37068 ft 484 kts 135°
2026-05-06 14:29 39.18084 24.71159 37073 ft 484 kts 135°
2026-05-06 14:30 39.13356 24.77346 37076 ft 484 kts 135°
2026-05-06 14:30 39.08621 24.83522 37079 ft 484 kts 135°
2026-05-06 14:31 39.03918 24.89652 37081 ft 484 kts 135°
2026-05-06 14:31 38.99156 24.95862 37065 ft 484 kts 135°
2026-05-06 14:32 38.94425 25.02014 37085 ft 484 kts 135°
2026-05-06 14:32 38.89714 25.08134 37074 ft 485 kts 135°
2026-05-06 14:33 38.84957 25.14292 37075 ft 486 kts 135°
2026-05-06 14:33 38.80153 25.20479 37078 ft 486 kts 135°
2026-05-06 14:34 38.75383 25.26618 37080 ft 487 kts 135°
2026-05-06 14:34 38.70599 25.32755 37068 ft 487 kts 135°
2026-05-06 14:35 38.65816 25.38900 37080 ft 487 kts 135°
2026-05-06 14:35 38.61059 25.45004 37075 ft 488 kts 135°
2026-05-06 14:36 38.56261 25.51142 37076 ft 488 kts 135°
2026-05-06 14:36 38.51457 25.57263 37081 ft 488 kts 135°
2026-05-06 14:37 38.46641 25.63389 37086 ft 489 kts 135°
2026-05-06 14:37 38.41813 25.69510 37086 ft 490 kts 135°
2026-05-06 14:38 38.36981 25.75642 37076 ft 490 kts 135°
2026-05-06 14:38 38.32146 25.81763 37083 ft 491 kts 135°
2026-05-06 14:39 38.27224 25.87780 37084 ft 490 kts 142°
2026-05-06 14:39 38.21424 25.92225 37089 ft 486 kts 160°
2026-05-06 14:40 38.15093 25.95174 37101 ft 485 kts 163°
2026-05-06 14:40 38.08739 25.98071 37081 ft 485 kts 163°
2026-05-06 14:41 38.02382 26.00958 37000 ft 487 kts 163°
2026-05-06 14:41 37.99241 26.02381 36737 ft 486 kts 163°
2026-05-06 14:41 37.96054 26.03828 36476 ft 487 kts 163°
2026-05-06 14:42 37.92865 26.05278 36198 ft 487 kts 163°
2026-05-06 14:42 37.89661 26.06734 35315 ft 492 kts 163°
2026-05-06 14:42 37.86427 26.08201 34377 ft 496 kts 163°
2026-05-06 14:42 37.83164 26.09677 33328 ft 500 kts 163°
2026-05-06 14:43 37.79879 26.11157 32305 ft 503 kts 162°
2026-05-06 14:43 37.76594 26.12640 31661 ft 498 kts 162°
2026-05-06 14:43 37.73348 26.14106 31024 ft 494 kts 162°
2026-05-06 14:43 37.70122 26.15561 30408 ft 491 kts 162°
2026-05-06 14:44 37.66916 26.17003 29733 ft 487 kts 162°
2026-05-06 14:44 37.63738 26.18428 29127 ft 482 kts 162°
2026-05-06 14:44 37.60594 26.19839 28539 ft 477 kts 162°
2026-05-06 14:45 37.54376 26.22618 27349 ft 470 kts 162°
2026-05-06 14:45 37.51303 26.23988 26771 ft 466 kts 162°
2026-05-06 14:45 37.48256 26.25351 26196 ft 463 kts 162°
2026-05-06 14:45 37.45239 26.26701 25638 ft 460 kts 162°
2026-05-06 14:46 37.42235 26.28045 25086 ft 456 kts 162°
2026-05-06 14:46 37.39254 26.29378 24544 ft 453 kts 162°
2026-05-06 14:46 37.36288 26.30698 24029 ft 450 kts 162°
2026-05-06 14:46 37.33355 26.32005 23490 ft 447 kts 162°
2026-05-06 14:47 37.30439 26.33304 22978 ft 442 kts 162°
2026-05-06 14:47 37.27558 26.34586 22496 ft 437 kts 162°
2026-05-06 14:47 37.24704 26.35851 22013 ft 433 kts 162°
2026-05-06 14:47 37.21875 26.37104 21542 ft 429 kts 162°
2026-05-06 14:48 37.19072 26.38348 21041 ft 426 kts 162°
2026-05-06 14:48 37.16291 26.39584 20566 ft 422 kts 162°
2026-05-06 14:48 37.13535 26.40806 20065 ft 420 kts 162°
2026-05-06 14:48 37.10789 26.42025 19569 ft 417 kts 162°
2026-05-06 14:49 37.08058 26.43239 19060 ft 416 kts 162°
2026-05-06 14:49 37.05337 26.44445 18545 ft 414 kts 162°
2026-05-06 14:49 37.02661 26.45628 17982 ft 412 kts 162°
2026-05-06 14:49 36.99932 26.46837 17482 ft 409 kts 161°
2026-05-06 14:50 36.97263 26.48019 16976 ft 405 kts 161°
2026-05-06 14:50 36.94622 26.49187 16481 ft 402 kts 161°
2026-05-06 14:50 36.92064 26.50553 15988 ft 399 kts 150°
2026-05-06 14:50 36.89820 26.52562 15503 ft 396 kts 137°
2026-05-06 14:51 36.88030 26.55085 15017 ft 392 kts 123°
2026-05-06 14:51 36.86728 26.58044 14537 ft 387 kts 111°
2026-05-06 14:51 36.85683 26.61130 14041 ft 385 kts 111°
2026-05-06 14:51 36.84635 26.64193 13517 ft 382 kts 111°
2026-05-06 14:52 36.83561 26.67258 12992 ft 379 kts 115°
2026-05-06 14:52 36.82160 26.70017 12502 ft 377 kts 128°
2026-05-06 14:52 36.80444 26.72419 12001 ft 373 kts 131°
2026-05-06 14:52 36.78703 26.74805 11507 ft 370 kts 131°
2026-05-06 14:53 36.76985 26.77169 11001 ft 367 kts 131°
2026-05-06 14:53 36.75280 26.79518 10517 ft 363 kts 131°
2026-05-06 14:53 36.73636 26.81781 10360 ft 338 kts 130°
2026-05-06 14:53 36.72113 26.83875 10172 ft 316 kts 130°
2026-05-06 14:54 36.70662 26.85871 9691 ft 306 kts 130°
2026-05-06 14:54 36.69351 26.87913 9551 ft 297 kts 120°
2026-05-06 14:54 36.68408 26.90133 9418 ft 284 kts 113°
2026-05-06 14:54 36.67547 26.92304 9222 ft 277 kts 113°
2026-05-06 14:55 36.66692 26.94452 8824 ft 277 kts 113°
2026-05-06 14:55 36.65836 26.96596 8445 ft 276 kts 113°
2026-05-06 14:55 36.64981 26.98730 8073 ft 275 kts 113°
2026-05-06 14:55 36.64136 27.00832 7701 ft 267 kts 113°
2026-05-06 14:56 36.63313 27.02870 7325 ft 261 kts 113°
2026-05-06 14:56 36.62505 27.04880 6962 ft 259 kts 112°
2026-05-06 14:56 36.61698 27.06890 6601 ft 260 kts 112°
2026-05-06 14:56 36.60890 27.08902 6201 ft 260 kts 112°
2026-05-06 14:57 36.60089 27.10918 5800 ft 259 kts 109°
2026-05-06 14:57 36.59687 27.12997 5563 ft 238 kts 86°
2026-05-06 14:57 36.59882 27.15045 5247 ft 238 kts 67°
2026-05-06 14:57 36.60467 27.16955 4895 ft 236 kts 65°
2026-05-06 14:58 36.61063 27.18858 4532 ft 236 kts 64°
2026-05-06 14:58 36.61977 27.20486 4186 ft 229 kts 33°
2026-05-06 14:58 36.63440 27.21077 3862 ft 222 kts 357°
2026-05-06 14:58 36.64870 27.20464 3552 ft 221 kts 326°
2026-05-06 14:59 36.66101 27.19331 3239 ft 219 kts 328°
2026-05-06 14:59 36.67372 27.18326 2945 ft 212 kts 330°
2026-05-06 14:59 36.68604 27.17401 2654 ft 203 kts 330°
2026-05-06 14:59 36.69770 27.16526 2391 ft 192 kts 329°
2026-05-06 15:00 36.70875 27.15695 2152 ft 179 kts 329°
2026-05-06 15:00 36.71915 27.14914 1900 ft 168 kts 328°
2026-05-06 15:00 36.72872 27.14189 1690 ft 154 kts 327°
2026-05-06 15:00 36.73759 27.13515 1476 ft 145 kts 328°
2026-05-06 15:01 36.74615 27.12868 1351 ft 140 kts 328°
2026-05-06 15:01 36.75449 27.12244 1152 ft 139 kts 326°
2026-05-06 15:01 36.76264 27.11610 987 ft 138 kts 325°
2026-05-06 15:01 36.77071 27.10961 839 ft 138 kts 325°
2026-05-06 15:02 36.77876 27.10343 637 ft 137 kts 328°
2026-05-06 15:02 36.78681 27.09711 456 ft 131 kts 324°
2026-05-06 15:02 36.79489 27.09078 1023 ft 142 kts 325°
2026-05-06 15:02 36.80367 27.08384 1879 ft 154 kts 327°
2026-05-06 15:03 36.81307 27.07616 2428 ft 170 kts 326°
2026-05-06 15:03 36.82327 27.06718 2765 ft 192 kts 326°
2026-05-06 15:03 36.83441 27.05715 3312 ft 201 kts 326°
2026-05-06 15:03 36.84572 27.04673 3812 ft 207 kts 326°
2026-05-06 15:04 36.85677 27.03558 3685 ft 203 kts 313°
2026-05-06 15:04 36.86293 27.01971 3564 ft 208 kts 283°
2026-05-06 15:04 36.86150 27.00174 3440 ft 214 kts 250°
2026-05-06 15:04 36.85214 26.98714 3315 ft 222 kts 216°
2026-05-06 15:05 36.83868 26.97761 3194 ft 222 kts 211°
2026-05-06 15:05 36.82524 26.96824 3087 ft 222 kts 211°
2026-05-06 15:05 36.81182 26.95877 3001 ft 220 kts 211°
2026-05-06 15:05 36.79854 26.94938 3008 ft 220 kts 211°
2026-05-06 15:06 36.78522 26.93996 3007 ft 219 kts 212°
2026-05-06 15:06 36.77193 26.93054 3007 ft 220 kts 212°
2026-05-06 15:06 36.75863 26.92112 3009 ft 219 kts 211°
2026-05-06 15:06 36.74539 26.91176 3003 ft 219 kts 211°
2026-05-06 15:07 36.73661 26.90554 3004 ft 220 kts 212°
2026-05-06 15:07 36.72331 26.89616 3002 ft 219 kts 211°
2026-05-06 15:07 36.71005 26.88683 3000 ft 219 kts 211°
2026-05-06 15:07 36.69676 26.87746 2998 ft 219 kts 211°
2026-05-06 15:08 36.68234 26.87179 2999 ft 222 kts 180°
2026-05-06 15:08 36.66777 26.87712 2999 ft 221 kts 143°
2026-05-06 15:08 36.65845 26.89161 2999 ft 215 kts 106°
2026-05-06 15:08 36.65559 26.90971 2999 ft 214 kts 99°
2026-05-06 15:09 36.65135 26.92748 2997 ft 215 kts 107°
2026-05-06 15:09 36.64602 26.94492 3000 ft 215 kts 108°
2026-05-06 15:09 36.64055 26.96229 3002 ft 215 kts 108°
2026-05-06 15:09 36.63520 26.97967 3001 ft 215 kts 108°
2026-05-06 15:10 36.62999 26.99716 3001 ft 216 kts 107°
2026-05-06 15:10 36.62488 27.01474 3002 ft 215 kts 106°
2026-05-06 15:10 36.61987 27.03224 3002 ft 215 kts 107°
2026-05-06 15:10 36.61490 27.04978 3002 ft 215 kts 106°
2026-05-06 15:11 36.61001 27.06714 3003 ft 216 kts 106°
2026-05-06 15:11 36.60507 27.08474 3000 ft 215 kts 106°
2026-05-06 15:11 36.60015 27.10231 3002 ft 215 kts 106°
2026-05-06 15:11 36.59582 27.12005 2997 ft 213 kts 96°
2026-05-06 15:12 36.59586 27.13822 2998 ft 209 kts 76°
2026-05-06 15:12 36.60023 27.15510 2999 ft 205 kts 64°
2026-05-06 15:12 36.60533 27.17138 2987 ft 199 kts 65°
2026-05-06 15:12 36.61027 27.18729 3001 ft 194 kts 63°
2026-05-06 15:13 36.61781 27.20068 2977 ft 188 kts 36°
2026-05-06 15:13 36.62920 27.20798 2980 ft 184 kts 11°
2026-05-06 15:13 36.64182 27.20803 2980 ft 182 kts 346°
2026-05-06 15:13 36.65330 27.20131 2890 ft 184 kts 329°
2026-05-06 15:14 36.66415 27.19277 2767 ft 184 kts 328°
2026-05-06 15:14 36.67497 27.18426 2670 ft 184 kts 328°
2026-05-06 15:14 36.68549 27.17597 2608 ft 172 kts 328°
2026-05-06 15:14 36.69522 27.16833 2531 ft 158 kts 328°
2026-05-06 15:15 36.70451 27.16111 2281 ft 155 kts 328°
2026-05-06 15:15 36.71344 27.15421 2055 ft 147 kts 328°
2026-05-06 15:15 36.72194 27.14762 1861 ft 141 kts 327°
2026-05-06 15:15 36.73022 27.14119 1697 ft 140 kts 327°
2026-05-06 15:16 36.73840 27.13478 1530 ft 138 kts 326°
2026-05-06 15:16 36.74653 27.12841 1377 ft 138 kts 326°
2026-05-06 15:16 36.75464 27.12210 1188 ft 138 kts 326°
2026-05-06 15:16 36.76279 27.11580 995 ft 138 kts 326°
2026-05-06 15:17 36.77101 27.10955 810 ft 138 kts 325°
2026-05-06 15:17 36.77916 27.10318 594 ft 138 kts 327°
2026-05-06 15:17 36.78722 27.09691 453 ft 131 kts 325°
2026-05-06 15:17 36.79413 27.09145 420 ft 100 kts 328°
2026-05-06 15:18 36.79875 27.08784 427 ft 66 kts 329°
2026-05-06 15:18 36.80184 27.08550 420 ft 36 kts 329°
2026-05-06 15:18 36.80336 27.08461 419 ft 15 kts 13°
2026-05-06 15:18 36.80348 27.08566 422 ft 13 kts 102°
2026-05-06 15:19 36.80324 27.08670 426 ft 12 kts 117°
2026-05-06 15:19 36.80264 27.08731 423 ft 11 kts 148°
2026-05-06 15:19 36.80204 27.08779 425 ft 10 kts 148°
2026-05-06 15:19 36.80148 27.08822 424 ft 9 kts 150°
2026-05-06 15:20 36.80099 27.08861 419 ft 8 kts 142°
2026-05-06 15:20 36.80093 27.08918 426 ft 6 kts 87°
2026-05-06 15:20 36.80094 27.08966 421 ft 5 kts 88°
2026-05-06 15:20 36.80094 27.08970 428 ft 0 kts 88°